TimeCDT,TemperatureF,Dew PointF,Humidity,Sea Level PressureIn,VisibilityMPH,Wind Direction,Wind SpeedMPH,Gust SpeedMPH,PrecipitationIn,Events,Conditions,WindDirDegrees,DateUTC
12:55 AM,32.0,24.1,73,30.07,10.0,North,3.5,-,N/A,,Overcast,360,2013-03-23 05:55:00
1:55 AM,32.0,25.0,75,30.06,10.0,Calm,Calm,-,N/A,,Overcast,0,2013-03-23 06:55:00
2:55 AM,30.9,24.1,76,30.07,10.0,North,4.6,-,N/A,,Overcast,10,2013-03-23 07:55:00
3:55 AM,32.0,21.9,66,30.05,10.0,Calm,Calm,-,N/A,,Overcast,0,2013-03-23 08:55:00
4:55 AM,32.0,21.9,66,30.06,10.0,North,4.6,-,N/A,,Overcast,10,2013-03-23 09:55:00
5:55 AM,30.2,23.0,75,30.02,10.0,NNE,5.8,-,N/A,,Overcast,30,2013-03-23 10:55:00
6:55 AM,30.9,24.1,76,30.08,10.0,NNE,5.8,-,N/A,,Overcast,20,2013-03-23 11:55:00
7:55 AM,32.0,24.8,75,30.06,9.0,NE,9.2,-,N/A,,Overcast,40,2013-03-23 12:55:00
8:55 AM,35.1,24.1,64,30.08,10.0,NE,10.4,-,N/A,,Overcast,50,2013-03-23 13:55:00
9:55 AM,37.0,24.1,59,30.09,10.0,ENE,8.1,-,N/A,,Overcast,60,2013-03-23 14:55:00
10:55 AM,37.9,24.1,57,30.10,10.0,NE,9.2,-,N/A,,Overcast,50,2013-03-23 15:55:00
11:55 AM,39.9,23.0,51,30.09,10.0,ENE,13.8,-,N/A,,Overcast,70,2013-03-23 16:55:00
12:55 PM,42.1,24.1,49,30.09,10.0,East,10.4,-,N/A,,Overcast,90,2013-03-23 17:55:00
1:55 PM,44.1,23.0,43,30.05,10.0,ENE,9.2,-,N/A,,Overcast,60,2013-03-23 18:55:00
2:55 PM,45.0,23.0,42,30.00,10.0,ENE,13.8,19.6,N/A,,Overcast,60,2013-03-23 19:55:00
3:55 PM,45.0,25.0,46,29.96,10.0,East,11.5,18.4,N/A,,Scattered Clouds,90,2013-03-23 20:55:00
4:55 PM,45.0,25.0,46,29.96,10.0,NE,11.5,-,N/A,,Mostly Cloudy,50,2013-03-23 21:55:00
5:55 PM,44.1,25.0,47,29.96,10.0,NE,10.4,-,N/A,,Overcast,50,2013-03-23 22:55:00
6:55 PM,42.1,26.1,53,29.96,10.0,NNE,11.5,-,N/A,,Overcast,30,2013-03-23 23:55:00
7:20 PM,39.2,30.2,70,29.94,8.0,NNE,13.8,25.3,0.00,Rain,Light Rain,20,2013-03-24 00:20:00
7:55 PM,37.0,32.0,82,29.98,8.0,NE,17.3,21.9,0.01,Rain,Light Rain,40,2013-03-24 00:55:00
8:44 PM,35.6,30.2,81,29.96,2.5,NE,13.8,-,0.03,Snow,Light Snow,50,2013-03-24 01:44:00
8:55 PM,34.0,32.0,92,29.99,2.0,NE,11.5,19.6,0.04,Snow,Light Snow,40,2013-03-24 01:55:00
9:02 PM,33.8,30.2,87,29.96,1.5,NE,12.7,-,0.01,Snow,Light Snow,40,2013-03-24 02:02:00
9:11 PM,33.8,32.0,93,29.96,1.2,NE,11.5,-,0.02,Snow,Light Snow,40,2013-03-24 02:11:00
9:27 PM,33.8,32.0,93,29.96,1.2,NNE,11.5,-,0.03,Snow,Light Snow,30,2013-03-24 02:27:00
9:53 PM,32.0,32.0,100,29.97,0.8,NNE,10.4,-,0.05,Snow,Light Snow,30,2013-03-24 02:53:00
9:55 PM,32.0,32.0,100,30.00,1.0,NNE,11.5,-,0.05,Snow,Light Snow,30,2013-03-24 02:55:00
10:55 PM,32.0,30.9,96,30.00,1.2,NNE,15.0,-,0.02,Snow,Light Snow,30,2013-03-24 03:55:00
11:55 PM,32.0,30.9,96,29.99,1.2,NNE,13.8,-,0.02,Snow,Light Snow,30,2013-03-24 04:55:00